Time,TemperatureF,DewpointF,PressureIn,WindDirection,WindDirectionDegrees,WindSpeedMPH,WindSpeedGustMPH,Humidity,HourlyPrecipIn,Conditions,Clouds,dailyrainin,SoftwareType,DateUTC
2013-07-06 00:02:00,79.0,-99.9,30.01,ESE,116,27.0,30.0,-999,-99.99,,,-99.99,,2013-07-06 05:02:00,
2013-07-06 00:12:00,79.0,-99.9,30.01,ESE,121,26.0,29.0,-999,-99.99,,,-99.99,,2013-07-06 05:12:00,
2013-07-06 00:34:00,79.0,-99.9,30.02,SE,126,24.0,26.0,-999,-99.99,,,-99.99,,2013-07-06 05:34:00,
2013-07-06 00:43:00,79.0,-99.9,30.02,SE,129,23.0,26.0,-999,-99.99,,,-99.99,,2013-07-06 05:43:00,
2013-07-06 00:53:00,79.0,-99.9,30.02,SE,130,23.0,24.0,-999,-99.99,,,-99.99,,2013-07-06 05:53:00,
2013-07-06 01:02:00,79.0,-99.9,30.03,SE,132,22.0,25.0,-999,-99.99,,,-99.99,,2013-07-06 06:02:00,
2013-07-06 01:12:00,79.0,-99.9,30.03,SE,133,20.0,25.0,-999,-99.99,,,-99.99,,2013-07-06 06:12:00,
2013-07-06 01:22:00,79.0,-99.9,30.03,SE,133,20.0,25.0,-999,-99.99,,,-99.99,,2013-07-06 06:22:00,
2013-07-06 01:43:00,79.0,-99.9,30.03,SE,133,22.0,26.0,-999,-99.99,,,-99.99,,2013-07-06 06:43:00,
2013-07-06 01:53:00,79.0,-99.9,30.03,SE,133,19.0,24.0,-999,-99.99,,,-99.99,,2013-07-06 06:53:00,
2013-07-06 02:02:00,79.0,-99.9,30.03,SE,132,19.0,22.0,-999,-99.99,,,-99.99,,2013-07-06 07:02:00,
2013-07-06 02:12:00,79.0,-99.9,30.03,SE,131,18.0,20.0,-999,-99.99,,,-99.99,,2013-07-06 07:12:00,
2013-07-06 02:33:00,79.0,-99.9,30.02,SE,127,17.0,19.0,-999,-99.99,,,-99.99,,2013-07-06 07:33:00,
2013-07-06 02:44:00,79.0,-99.9,30.02,SE,128,16.0,18.0,-999,-99.99,,,-99.99,,2013-07-06 07:44:00,
2013-07-06 02:52:00,79.0,-99.9,30.02,SE,125,15.0,17.0,-999,-99.99,,,-99.99,,2013-07-06 07:52:00,
2013-07-06 03:02:00,79.0,-99.9,30.02,SE,125,16.0,17.0,-999,-99.99,,,-99.99,,2013-07-06 08:02:00,
2013-07-06 03:12:00,79.0,-99.9,30.02,SE,128,14.0,18.0,-999,-99.99,,,-99.99,,2013-07-06 08:12:00,
2013-07-06 03:34:00,79.0,-99.9,30.01,ESE,120,16.0,19.0,-999,-99.99,,,-99.99,,2013-07-06 08:34:00,
2013-07-06 03:43:00,79.0,-99.9,30.01,SE,126,15.0,18.0,-999,-99.99,,,-99.99,,2013-07-06 08:43:00,
2013-07-06 03:54:00,79.0,-99.9,30.01,SE,127,13.0,18.0,-999,-99.99,,,-99.99,,2013-07-06 08:54:00,
2013-07-06 04:02:00,79.0,-99.9,30.01,SE,125,14.0,17.0,-999,-99.99,,,-99.99,,2013-07-06 09:02:00,
2013-07-06 04:11:00,79.0,-99.9,30.01,SE,125,15.0,18.0,-999,-99.99,,,-99.99,,2013-07-06 09:11:00,
2013-07-06 04:34:00,80.0,-99.9,30.01,SE,129,15.0,18.0,-999,-99.99,,,-99.99,,2013-07-06 09:34:00,
2013-07-06 04:53:00,80.0,-99.9,30.01,SE,127,14.0,16.0,-999,-99.99,,,-99.99,,2013-07-06 09:53:00,
2013-07-06 05:02:00,80.0,-99.9,30.01,SE,127,13.0,17.0,-999,-99.99,,,-99.99,,2013-07-06 10:02:00,
2013-07-06 05:12:00,80.0,-99.9,30.01,SE,130,15.0,18.0,-999,-99.99,,,-99.99,,2013-07-06 10:12:00,
2013-07-06 05:22:00,80.0,-99.9,30.01,SE,130,15.0,18.0,-999,-99.99,,,-99.99,,2013-07-06 10:22:00,
2013-07-06 05:33:00,80.0,-99.9,30.01,SE,130,17.0,18.0,-999,-99.99,,,-99.99,,2013-07-06 10:33:00,
2013-07-06 05:43:00,80.0,-99.9,30.01,SE,129,16.0,18.0,-999,-99.99,,,-99.99,,2013-07-06 10:43:00,
2013-07-06 05:53:00,79.0,-99.9,30.01,SE,135,16.0,17.0,-999,-99.99,,,-99.99,,2013-07-06 10:53:00,
2013-07-06 06:01:00,80.0,-99.9,30.01,SE,128,12.0,13.0,-999,-99.99,,,-99.99,,2013-07-06 11:01:00,
2013-07-06 06:11:00,80.0,-99.9,30.01,SE,132,11.0,16.0,-999,-99.99,,,-99.99,,2013-07-06 11:11:00,
2013-07-06 06:33:00,80.0,-99.9,30.02,SE,133,15.0,15.0,-999,-99.99,,,-99.99,,2013-07-06 11:33:00,
2013-07-06 06:43:00,80.0,-99.9,30.02,SE,131,14.0,16.0,-999,-99.99,,,-99.99,,2013-07-06 11:43:00,
2013-07-06 06:53:00,80.0,-99.9,30.02,SE,133,14.0,15.0,-999,-99.99,,,-99.99,,2013-07-06 11:53:00,
2013-07-06 07:01:00,80.0,-99.9,30.02,SE,129,14.0,15.0,-999,-99.99,,,-99.99,,2013-07-06 12:01:00,
2013-07-06 07:12:00,80.0,-99.9,30.02,SE,129,12.0,15.0,-999,-99.99,,,-99.99,,2013-07-06 12:12:00,
2013-07-06 07:33:00,80.0,-99.9,30.03,ESE,123,13.0,18.0,-999,-99.99,,,-99.99,,2013-07-06 12:33:00,
2013-07-06 07:43:00,78.0,-99.9,30.03,SE,138,16.0,24.0,-999,-99.99,,,-99.99,,2013-07-06 12:43:00,
2013-07-06 07:52:00,74.0,-99.9,30.05,SSW,207,16.0,27.0,-999,-99.99,,,-99.99,,2013-07-06 12:52:00,
2013-07-06 08:01:00,73.0,-99.9,30.05,South,191,14.0,19.0,-999,-99.99,,,-99.99,,2013-07-06 13:01:00,
2013-07-06 08:12:00,72.0,-99.9,30.05,SSW,199,8.0,14.0,-999,-99.99,,,-99.99,,2013-07-06 13:12:00,
2013-07-06 08:33:00,73.0,-99.9,30.06,SSW,196,5.0,9.0,-999,-99.99,,,-99.99,,2013-07-06 13:33:00,
2013-07-06 08:43:00,74.0,-99.9,30.06,SSW,199,2.0,7.0,-999,-99.99,,,-99.99,,2013-07-06 13:43:00,
2013-07-06 08:52:00,75.0,-99.9,30.07,South,177,4.0,9.0,-999,-99.99,,,-99.99,,2013-07-06 13:52:00,
2013-07-06 09:02:00,76.0,-99.9,30.08,SE,140,8.0,9.0,-999,-99.99,,,-99.99,,2013-07-06 14:02:00,
2013-07-06 09:12:00,75.0,-99.9,30.08,SE,138,7.0,13.0,-999,-99.99,,,-99.99,,2013-07-06 14:12:00,
2013-07-06 09:34:00,75.0,-99.9,30.08,SE,128,9.0,10.0,-999,-99.99,,,-99.99,,2013-07-06 14:34:00,
2013-07-06 09:43:00,75.0,-99.9,30.08,SE,129,7.0,9.0,-999,-99.99,,,-99.99,,2013-07-06 14:43:00,
2013-07-06 09:53:00,75.0,-99.9,30.08,ESE,113,4.0,8.0,-999,-99.99,,,-99.99,,2013-07-06 14:53:00,
2013-07-06 10:02:00,75.0,-99.9,30.08,East,89,3.0,4.0,-999,-99.99,,,-99.99,,2013-07-06 15:02:00,
2013-07-06 10:12:00,75.0,-99.9,30.08,ENE,60,2.0,4.0,-999,-99.99,,,-99.99,,2013-07-06 15:12:00,
2013-07-06 10:34:00,75.0,-99.9,30.08,NE,37,6.0,7.0,-999,-99.99,,,-99.99,,2013-07-06 15:34:00,
2013-07-06 10:43:00,75.0,-99.9,30.08,NNE,28,6.0,6.0,-999,-99.99,,,-99.99,,2013-07-06 15:43:00,
2013-07-06 10:53:00,75.0,-99.9,30.08,NNE,25,6.0,10.0,-999,-99.99,,,-99.99,,2013-07-06 15:53:00,
2013-07-06 11:09:00,75.0,-99.9,30.08,NE,38,7.0,11.0,-999,-99.99,,,-99.99,,2013-07-06 16:09:00,
2013-07-06 11:16:00,75.0,-99.9,30.08,NE,43,10.0,13.0,-999,-99.99,,,-99.99,,2013-07-06 16:16:00,
2013-07-06 12:02:00,75.0,-99.9,30.09,NE,51,9.0,11.0,-999,-99.99,,,-99.99,,2013-07-06 17:02:00,
2013-07-06 12:19:00,75.0,-99.9,30.09,ENE,60,5.0,8.0,-999,-99.99,,,-99.99,,2013-07-06 17:19:00,
2013-07-06 12:46:00,75.0,-99.9,30.09,ENE,69,7.0,9.0,-999,-99.99,,,-99.99,,2013-07-06 17:46:00,
2013-07-06 13:01:00,75.0,-99.9,30.09,ENE,76,8.0,9.0,-999,-99.99,,,-99.99,,2013-07-06 18:01:00,
2013-07-06 13:10:00,74.0,-99.9,30.09,ENE,69,8.0,9.0,-999,-99.99,,,-99.99,,2013-07-06 18:10:00,
2013-07-06 13:51:00,75.0,-99.9,30.08,East,80,11.0,12.0,-999,-99.99,,,-99.99,,2013-07-06 18:51:00,
2013-07-06 14:11:00,75.0,-99.9,30.07,East,91,10.0,12.0,-999,-99.99,,,-99.99,,2013-07-06 19:11:00,
2013-07-06 14:17:00,76.0,-99.9,30.06,East,90,10.0,12.0,-999,-99.99,,,-99.99,,2013-07-06 19:17:00,
2013-07-06 14:26:00,76.0,-99.9,30.06,East,87,11.0,12.0,-999,-99.99,,,-99.99,,2013-07-06 19:26:00,
2013-07-06 14:50:00,76.0,-99.9,30.05,East,90,11.0,13.0,-999,-99.99,,,-99.99,,2013-07-06 19:50:00,
2013-07-06 15:10:00,76.0,-99.9,30.04,ESE,103,11.0,13.0,-999,-99.99,,,-99.99,,2013-07-06 20:10:00,
2013-07-06 15:27:00,76.0,-99.9,30.04,East,100,11.0,13.0,-999,-99.99,,,-99.99,,2013-07-06 20:27:00,
2013-07-06 16:02:00,76.0,-99.9,30.04,ESE,108,11.0,14.0,-999,-99.99,,,-99.99,,2013-07-06 21:02:00,
2013-07-06 16:12:00,76.0,-99.9,30.04,ESE,105,12.0,15.0,-999,-99.99,,,-99.99,,2013-07-06 21:12:00,
2013-07-06 16:25:00,77.0,-99.9,30.04,ESE,105,11.0,14.0,-999,-99.99,,,-99.99,,2013-07-06 21:25:00,
2013-07-06 16:38:00,77.0,-99.9,30.04,ESE,105,11.0,14.0,-999,-99.99,,,-99.99,,2013-07-06 21:38:00,
2013-07-06 17:11:00,77.0,-99.9,30.04,ESE,118,13.0,15.0,-999,-99.99,,,-99.99,,2013-07-06 22:11:00,
2013-07-06 17:19:00,77.0,-99.9,30.04,ESE,109,11.0,13.0,-999,-99.99,,,-99.99,,2013-07-06 22:19:00,
2013-07-06 17:27:00,77.0,-99.9,30.04,ESE,108,11.0,12.0,-999,-99.99,,,-99.99,,2013-07-06 22:27:00,
2013-07-06 17:50:00,77.0,-99.9,30.04,ESE,117,12.0,13.0,-999,-99.99,,,-99.99,,2013-07-06 22:50:00,
2013-07-06 18:02:00,78.0,-99.9,30.04,ESE,117,11.0,13.0,-999,-99.99,,,-99.99,,2013-07-06 23:02:00,
2013-07-06 18:09:00,77.0,-99.9,30.04,ESE,108,13.0,14.0,-999,-99.99,,,-99.99,,2013-07-06 23:09:00,
2013-07-06 18:15:00,77.0,-99.9,30.04,ESE,117,13.0,14.0,-999,-99.99,,,-99.99,,2013-07-06 23:15:00,
2013-07-06 19:28:00,78.0,-99.9,30.04,SE,125,13.0,15.0,-999,-99.99,,,-99.99,,2013-07-07 00:28:00,
2013-07-06 20:01:00,78.0,-99.9,30.04,ESE,114,15.0,16.0,-999,-99.99,,,-99.99,,2013-07-07 01:01:00,
2013-07-06 20:17:00,78.0,-99.9,30.05,SE,126,15.0,17.0,-999,-99.99,,,-99.99,,2013-07-07 01:17:00,
2013-07-06 21:11:00,78.0,-99.9,30.06,SE,126,17.0,18.0,-999,-99.99,,,-99.99,,2013-07-07 02:11:00,
2013-07-06 21:23:00,79.0,-99.9,30.06,SE,128,14.0,18.0,-999,-99.99,,,-99.99,,2013-07-07 02:23:00,
2013-07-06 22:02:00,79.0,-99.9,30.07,SE,134,15.0,17.0,-999,-99.99,,,-99.99,,2013-07-07 03:02:00,
2013-07-06 22:15:00,79.0,-99.9,30.07,SE,129,15.0,19.0,-999,-99.99,,,-99.99,,2013-07-07 03:15:00,
2013-07-06 22:34:00,79.0,-99.9,30.07,SE,124,15.0,21.0,-999,-99.99,,,-99.99,,2013-07-07 03:34:00,
2013-07-06 22:45:00,79.0,-99.9,30.07,SE,129,18.0,23.0,-999,-99.99,,,-99.99,,2013-07-07 03:45:00,
2013-07-06 22:58:00,80.0,-99.9,30.07,SE,130,18.0,21.0,-999,-99.99,,,-99.99,,2013-07-07 03:58:00,
2013-07-06 23:01:00,80.0,-99.9,30.07,SE,131,18.0,22.0,-999,-99.99,,,-99.99,,2013-07-07 04:01:00,
2013-07-06 23:02:00,80.0,-99.9,30.08,SE,131,17.0,22.0,-999,-99.99,,,-99.99,,2013-07-07 04:02:00,
2013-07-06 23:11:00,80.0,-99.9,30.08,SE,134,20.0,21.0,-999,-99.99,,,-99.99,,2013-07-07 04:11:00,
2013-07-06 23:21:00,80.0,-99.9,30.08,SE,134,20.0,21.0,-999,-99.99,,,-99.99,,2013-07-07 04:21:00,
2013-07-06 23:31:00,80.0,-99.9,30.08,SE,129,19.0,21.0,-999,-99.99,,,-99.99,,2013-07-07 04:31:00,
2013-07-06 23:42:00,80.0,-99.9,30.08,SE,137,19.0,21.0,-999,-99.99,,,-99.99,,2013-07-07 04:42:00,
2013-07-06 23:52:00,80.0,-99.9,30.08,SE,141,18.0,20.0,-999,-99.99,,,-99.99,,2013-07-07 04:52:00,